When you browse on this site, cookies collect data to enhance your experience and personalize the content and advertising you see.
Visit our Privacy Policy to learn more. By continuing to use the site, you agree to this use of cookies and data.
  • In Deutschland
  • Länderverzeichnis
  • Für 7 Tage
  • Wassertemperatur
  • Satellitenkarten
  • Wetterkarte
  • Widgets
  • user-avatar
    Anmelden

    Stündliche Wetter Berlin

    Heute, 17 Februar, Sonntag

    Zeit Temperatur Niederschläge Wind Luftdruck Luftfeuchtigkeit
    00:00 +6°C° 0 mm 2 m/S 765 mmHg 82%
    01:00 +6°C° 0 mm 2 m/S 765 mmHg 84%
    02:00 +5°C° 0 mm 2 m/S 765 mmHg 86%
    03:00 +5°C° 0 mm 2 m/S 765 mmHg 87%
    04:00 +5°C° 0 mm 2 m/S 765 mmHg 89%
    05:00 +4°C° 0 mm 2 m/S 765 mmHg 89%
    06:00 +5°C° 0 mm 1 m/S 765 mmHg 90%
    07:00 +5°C° 0 mm 1 m/S 765 mmHg 90%
    08:00 +6°C° 0 mm 1 m/S 765 mmHg 86%
    09:00 +7°C° 0 mm 1 m/S 765 mmHg 81%
    10:00 +8°C° 0 mm 1 m/S 765 mmHg 76%
    11:00 +10°C° 0 mm 1 m/S 765 mmHg 70%
    12:00 +11°C° 0 mm 1 m/S 764 mmHg 63%
    13:00 +12°C° 0 mm 1 m/S 764 mmHg 57%
    14:00 +12°C° 0 mm 1 m/S 764 mmHg 59%
    15:00 +12°C° 0 mm 1 m/S 764 mmHg 60%
    16:00 +12°C° 0 mm 1 m/S 763 mmHg 62%
    17:00 +11°C° 0 mm 1 m/S 763 mmHg 66%
    18:00 +9°C° 0 mm 2 m/S 763 mmHg 71%
    19:00 +8°C° 0 mm 2 m/S 763 mmHg 76%
    20:00 +7°C° 0 mm 2 m/S 763 mmHg 77%
    21:00 +7°C° 0 mm 2 m/S 763 mmHg 77%
    22:00 +7°C° 0 mm 2 m/S 763 mmHg 78%
    23:00 +6°C° 0 mm 2 m/S 763 mmHg 80%

    Morgen, 18 Februar, Montag

    Zeit Temperatur Niederschläge Wind Luftdruck Luftfeuchtigkeit
    00:00 +6°C° 0 mm 2 m/S 763 mmHg 82%
    01:00 +5°C° 0 mm 2 m/S 763 mmHg 84%
    02:00 +5°C° 0 mm 2 m/S 762 mmHg 83%
    03:00 +4°C° 0 mm 2 m/S 762 mmHg 83%
    04:00 +4°C° 0 mm 2 m/S 762 mmHg 82%
    05:00 +4°C° 0 mm 2 m/S 762 mmHg 82%
    06:00 +3°C° 0 mm 2 m/S 762 mmHg 83%
    07:00 +3°C° 0 mm 2 m/S 762 mmHg 83%
    08:00 +4°C° 0 mm 2 m/S 762 mmHg 78%
    09:00 +5°C° 0 mm 2 m/S 762 mmHg 73%
    10:00 +7°C° 0 mm 2 m/S 762 mmHg 68%
    11:00 +8°C° 0 mm 2 m/S 761 mmHg 63%
    12:00 +9°C° 0 mm 2 m/S 761 mmHg 59%
    13:00 +12°C° 0 mm 2 m/S 761 mmHg 54%
    14:00 +12°C° 0 mm 2 m/S 761 mmHg 55%
    15:00 +12°C° 0 mm 2 m/S 760 mmHg 57%
    16:00 +12°C° 0 mm 1 m/S 760 mmHg 58%
    17:00 +10°C° 0 mm 2 m/S 760 mmHg 63%
    18:00 +9°C° 0 mm 2 m/S 760 mmHg 68%
    19:00 +7°C° 0 mm 2 m/S 760 mmHg 73%
    20:00 +7°C° 0 mm 2 m/S 760 mmHg 75%
    21:00 +6°C° 0 mm 2 m/S 759 mmHg 77%
    22:00 +6°C° 0 mm 2 m/S 759 mmHg 78%
    23:00 +6°C° 0 mm 2 m/S 759 mmHg 79%

    übermorgen, 19 Februar, Dienstag

    Zeit Temperatur Niederschläge Wind Luftdruck Luftfeuchtigkeit
    00:00 +4°C° 0 mm 3 m/S 759 mmHg 80%
    01:00 +4°C° 0 mm 3 m/S 759 mmHg 81%
    02:00 +4°C° 0 mm 3 m/S 759 mmHg 80%
    03:00 +4°C° 0 mm 3 m/S 759 mmHg 80%
    04:00 +4°C° 0 mm 3 m/S 758 mmHg 79%
    05:00 +3°C° 0 mm 3 m/S 758 mmHg 80%
    06:00 +3°C° 0 mm 3 m/S 758 mmHg 81%
    07:00 +3°C° 0 mm 3 m/S 758 mmHg 82%
    08:00 +4°C° 0 mm 3 m/S 758 mmHg 78%
    09:00 +5°C° 0 mm 3 m/S 758 mmHg 74%
    10:00 +7°C° 0 mm 3 m/S 758 mmHg 70%
    11:00 +6°C° 0.1 mm 4 m/S 758 mmHg 72%
    12:00 +7°C° 0.1 mm 4 m/S 758 mmHg 73%
    13:00 +7°C° 0.1 mm 5 m/S 758 mmHg 74%
    14:00 +7°C° 0.3 mm 4 m/S 758 mmHg 76%
    15:00 +7°C° 0.3 mm 4 m/S 758 mmHg 78%
    16:00 +7°C° 0.3 mm 4 m/S 759 mmHg 80%
    17:00 +7°C° 0 mm 4 m/S 759 mmHg 79%
    18:00 +7°C° 0 mm 3 m/S 760 mmHg 79%
    19:00 +7°C° 0 mm 3 m/S 760 mmHg 78%
    20:00 +7°C° 0 mm 3 m/S 760 mmHg 80%
    21:00 +5°C° 0 mm 3 m/S 761 mmHg 81%
    22:00 +5°C° 0 mm 3 m/S 761 mmHg 82%
    23:00 +4°C° 0 mm 4 m/S 761 mmHg 84%

    20 Februar, Mittwoch

    Zeit Temperatur Niederschläge Wind Luftdruck Luftfeuchtigkeit
    00:00 +4°C° 0 mm 4 m/S 761 mmHg 85%
    01:00 +4°C° 0 mm 4 m/S 761 mmHg 87%
    02:00 +3°C° 0 mm 4 m/S 761 mmHg 88%
    03:00 +3°C° 0 mm 4 m/S 761 mmHg 89%
    04:00 +3°C° 0 mm 4 m/S 761 mmHg 91%
    05:00 +3°C° 0 mm 4 m/S 762 mmHg 91%
    06:00 +2°C° 0 mm 3 m/S 762 mmHg 91%
    07:00 +2°C° 0 mm 3 m/S 762 mmHg 92%
    08:00 +3°C° 0 mm 4 m/S 762 mmHg 87%
    09:00 +4°C° 0 mm 4 m/S 762 mmHg 83%
    10:00 +5°C° 0 mm 4 m/S 763 mmHg 78%
    11:00 +6°C° 0 mm 4 m/S 763 mmHg 74%
    12:00 +7°C° 0 mm 5 m/S 763 mmHg 70%
    13:00 +8°C° 0 mm 5 m/S 763 mmHg 66%
    14:00 +8°C° 0 mm 4 m/S 762 mmHg 65%
    15:00 +8°C° 0 mm 4 m/S 762 mmHg 64%
    16:00 +10°C° 0 mm 4 m/S 762 mmHg 63%
    17:00 +9°C° 0 mm 3 m/S 763 mmHg 67%
    18:00 +8°C° 0 mm 3 m/S 763 mmHg 72%
    19:00 +7°C° 0 mm 2 m/S 763 mmHg 77%
    20:00 +6°C° 0 mm 2 m/S 763 mmHg 77%
    21:00 +5°C° 0 mm 3 m/S 763 mmHg 78%
    22:00 +5°C° 0 mm 3 m/S 763 mmHg 78%
    23:00 +5°C° 0.1 mm 3 m/S 763 mmHg 79%

    21 Februar, Donnerstag

    Zeit Temperatur Niederschläge Wind Luftdruck Luftfeuchtigkeit
    00:00 +5°C° 0.1 mm 3 m/S 763 mmHg 81%
    01:00 +5°C° 0.1 mm 3 m/S 763 mmHg 82%
    02:00 +5°C° 0.1 mm 3 m/S 763 mmHg 82%
    03:00 +5°C° 0.1 mm 3 m/S 762 mmHg 83%
    04:00 +5°C° 0.1 mm 3 m/S 762 mmHg 84%
    05:00 +5°C° 0.1 mm 4 m/S 762 mmHg 84%
    06:00 +5°C° 0.1 mm 4 m/S 762 mmHg 85%
    07:00 +5°C° 0.1 mm 4 m/S 762 mmHg 86%
    08:00 +5°C° 0.3 mm 5 m/S 762 mmHg 86%
    09:00 +6°C° 0.3 mm 5 m/S 762 mmHg 85%
    10:00 +6°C° 0.3 mm 5 m/S 762 mmHg 85%
    11:00 +7°C° 0.1 mm 5 m/S 762 mmHg 83%
    12:00 +7°C° 0.1 mm 5 m/S 762 mmHg 82%
    13:00 +8°C° 0.1 mm 5 m/S 763 mmHg 80%
    14:00 +8°C° 0 mm 5 m/S 763 mmHg 79%
    15:00 +8°C° 0 mm 5 m/S 763 mmHg 79%
    16:00 +8°C° 0 mm 5 m/S 763 mmHg 78%
    17:00 +8°C° 0 mm 4 m/S 763 mmHg 80%
    18:00 +8°C° 0 mm 4 m/S 764 mmHg 82%
    19:00 +8°C° 0 mm 3 m/S 764 mmHg 83%
    20:00 +7°C° 0 mm 4 m/S 764 mmHg 84%
    21:00 +6°C° 0 mm 4 m/S 765 mmHg 85%
    22:00 +6°C° 0 mm 4 m/S 765 mmHg 87%
    23:00 +6°C° 0 mm 4 m/S 765 mmHg 87%

    22 Februar, Freitag

    Zeit Temperatur Niederschläge Wind Luftdruck Luftfeuchtigkeit
    00:00 +5°C° 0 mm 4 m/S 765 mmHg 87%
    01:00 +5°C° 0 mm 4 m/S 765 mmHg 88%
    02:00 +5°C° 0 mm 4 m/S 765 mmHg 88%
    03:00 +4°C° 0 mm 4 m/S 766 mmHg 88%
    04:00 +4°C° 0 mm 4 m/S 766 mmHg 89%
    05:00 +4°C° 0 mm 4 m/S 766 mmHg 89%
    06:00 +4°C° 0 mm 4 m/S 767 mmHg 89%
    07:00 +4°C° 0 mm 4 m/S 767 mmHg 89%
    08:00 +4°C° 0 mm 4 m/S 768 mmHg 88%
    09:00 +4°C° 0 mm 4 m/S 768 mmHg 86%
    10:00 +5°C° 0 mm 3 m/S 769 mmHg 85%
    11:00 +5°C° 0 mm 4 m/S 770 mmHg 81%
    12:00 +5°C° 0 mm 4 m/S 770 mmHg 77%
    13:00 +5°C° 0 mm 4 m/S 771 mmHg 73%
    14:00 +5°C° 0 mm 4 m/S 771 mmHg 71%
    15:00 +4°C° 0 mm 4 m/S 772 mmHg 70%
    16:00 +4°C° 0 mm 4 m/S 772 mmHg 68%
    17:00 +4°C° 0 mm 4 m/S 773 mmHg 68%
    18:00 +3°C° 0 mm 3 m/S 774 mmHg 68%
    19:00 +3°C° 0 mm 3 m/S 774 mmHg 68%
    20:00 +2°C° 0 mm 3 m/S 775 mmHg 69%
    21:00 +1°C° 0 mm 3 m/S 775 mmHg 70%
    22:00 0°C° 0 mm 3 m/S 776 mmHg 71%
    23:00 0°C° 0 mm 3 m/S 776 mmHg 71%
    Mehr zeigen